Temp
12 13 12 12 12 11 12 11 11 11 10 10 10 9 9 9 9 8 8 8 8 7
12 12 12 11 11 11 11 11 11 10 10 9 9 9 9 8 8 8 8 7 7 7
11 11 11 11 11 11 10 10 9 9 9 9 9 9 8 8 8 7 7 7 7 6
11 11 11 10 10 10 10 10 9 9 9 9 8 8 8 8 7 7 7 6 6 6
10 10 10 10 10 10 9 9 8 8 8 8 8 7 7 7 6 6 6 6 5 5
10 10 10 10 9 9 9 8 8 8 7 7 7 7 6 6 6 6 5 5 5 5
10 10 9 9 9 8 8 8 7 7 7 7 6 6 6 6 5 5 5 5 4 4
9 9 9 9 8 8 7 7 7 7 6 6 6 6 5 5 5 5 5 5 4 4
9 9 9 8 7 7 7 6 6 6 6 6 6 5 5 4 4 4 4 4 4 4
9 8 8 7 7 6 6 6 6 6 6 5 5 5 5 4 4 4 4 4 4 4
8 7 7 7 7 6 6 6 6 5 5 5 5 4 4 4 4 4 4 4 4 3
8 7 7 6 6 6 6 5 5 4 4 4 5 4 4 4 4 3 4 4 3 3
7 7 7 6 5 5 5 4 4 4 4 4 4 4 4 4 3 2 3 3 3 2
6 6 5 5 4 4 4 4 3 3 4 3 3 3 3 3 2 2 2 1 2 2
Height
825 829 828 834 835 836 836 837 839 839 839 838 838 837 836 836 835 835 836 836 836 836
824 825 826 830 832 833 835 835 836 838 837 836 835 835 834 834 833 833 833 833 833 832
822 822 826 827 829 828 833 833 834 834 834 834 833 832 831 831 830 829 830 829 829 828
820 820 823 826 825 827 827 831 831 830 830 832 831 829 829 829 828 827 827 827 826 825
816 817 821 821 820 824 826 829 830 828 829 831 829 828 828 827 826 825 825 824 823 823
812 815 817 818 820 822 824 828 827 826 829 827 826 825 825 824 822 821 821 821 820 818
811 812 814 818 819 821 824 826 825 828 827 824 823 823 822 821 820 819 819 818 817 816
807 809 813 815 815 819 822 822 824 823 819 819 818 818 818 817 816 815 814 814 814 813
804 807 809 812 815 818 820 821 819 816 815 815 814 814 813 812 811 811 810 809 809 809
804 807 809 812 815 816 816 815 813 812 812 811 810 810 809 808 807 807 806 805 805 804
804 806 808 810 810 810 809 808 808 809 808 809 808 808 807 806 805 803 802 801 801 798
800 802 803 804 805 805 804 804 804 805 805 805 805 804 804 803 802 800 799 797 796 793
795 796 797 798 800 801 802 802 803 803 802 802 803 802 801 799 796 794 792 789 788 788
793 794 796 797 798 800 800 801 800 800 801 800 799 798 796 794 792 789 785 782 780 780
Wind_Speed
14 11 10 10 9 7 5 5 6 6 7 7 7 7 7 8 8 10 11 12 13 13
14 12 10 10 8 6 6 5 6 6 6 6 6 6 6 7 7 9 10 12 13 15
14 10 9 9 8 5 5 5 6 6 6 6 6 6 6 6 7 8 9 10 12 13
13 11 9 9 6 6 6 7 7 6 6 6 6 6 7 7 8 8 9 9 11 12
12 10 11 9 7 7 7 7 6 6 6 8 7 7 8 9 9 9 10 10 11 12
13 12 10 7 7 6 5 7 7 7 8 8 8 8 9 10 9 9 10 11 12 12
10 7 6 6 6 5 6 7 7 8 8 8 9 9 10 10 10 11 12 12 13 13
6 5 6 6 5 7 8 8 9 9 8 8 8 9 9 10 11 12 13 13 13 13
6 6 6 7 8 10 11 10 9 8 9 9 8 8 8 9 11 11 13 14 14 13
8 10 11 11 11 11 10 9 9 9 9 9 8 7 6 6 9 11 13 15 16 18
9 10 11 11 11 10 10 10 10 9 8 9 8 6 7 9 11 13 14 16 17 19
13 13 12 13 11 10 10 10 9 8 8 9 9 9 11 13 15 17 19 18 18 19
13 13 13 11 10 10 9 9 9 10 9 10 12 12 13 14 16 19 21 21 21 19
12 11 9 9 9 8 9 10 10 11 12 14 15 15 15 16 18 20 22 23 25 24
Wind_Direction
212 219 213 217 215 220 220 239 268 280 289 296 297 295 293 291 284 273 265 263 265 266
211 211 209 213 214 219 241 258 272 284 296 299 300 300 300 298 290 281 273 270 268 267
209 204 210 209 217 219 253 262 268 283 290 291 293 296 297 296 290 282 276 274 271 271
199 196 201 209 210 227 237 258 263 265 276 284 288 293 294 294 292 291 292 288 285 283
184 184 199 210 217 232 237 250 262 277 284 285 294 301 303 304 305 305 303 303 296 295
184 193 205 212 215 229 240 252 264 277 277 286 296 299 299 301 304 302 301 302 299 297
186 193 206 220 223 237 255 263 274 275 284 293 295 299 301 303 303 302 301 300 300 299
180 196 211 221 233 240 248 253 255 263 275 283 290 297 299 300 300 302 303 305 305 305
198 209 219 226 231 236 240 245 258 275 284 288 291 291 293 296 299 302 305 308 310 305
208 213 217 222 227 234 244 260 272 276 277 281 287 294 294 296 295 301 304 304 304 304
217 220 221 226 234 241 252 262 270 275 278 283 292 289 298 302 301 299 300 300 302 303
220 223 227 233 238 250 260 264 268 271 274 282 290 298 306 307 302 299 298 300 301 302
226 232 236 239 248 257 262 266 273 280 288 291 296 301 300 300 299 297 301 306 305 305
234 237 239 248 260 268 273 280 288 289 288 290 297 299 301 302 298 299 302 303 305 308